Munising, MI

1:04 PM EDT on August 23, 2017 (GMT -0400)
Munising

Weather History for KP53 - January, 2012

Change the Weather History Date:

Friday, January 6, 2012

  Actual Average (KISQ) Record (KISQ)
Temperature  
Mean Temperature 38 °F -  
Max Temperature 45 °F 23 °F 42 °F (2012)
Min Temperature 30 °F 7 °F -14 °F (2014)
Degree Days  
Heating Degree Days 28    
Moisture  
Dew Point 28 °F    
Average Humidity 71    
Maximum Humidity 82    
Minimum Humidity 56    
Precipitation  
Precipitation 0.00 in - - ()
Sea Level Pressure  
Sea Level Pressure 29.52 in    
Wind  
Wind Speed 9 mph (SW)    
Max Wind Speed 13 mph    
Max Gust Speed 17 mph    
Averages and records for this station are not official NWS values.
T = Trace of Precipitation, MM = Missing Value Source: NWS Daily Summary

Daily Weather History Graph

Daily Weather History Graph

Search for Another Location

Airport or City:

Trip Planner

Search our weather history database for the weather conditions in past years. The results will help you decide how hot, cold, wet, or windy it might be!

Date:

Astronomy

Jan. 06, 2012 Rise Set
Actual Time 8:29 AM EST 5:15 PM EST
Civil Twilight 7:55 AM EST 5:49 PM EST
Nautical Twilight 7:17 AM EST 6:27 PM EST
Astronomical Twilight 6:40 AM EST 7:04 PM EST
Moon 3:03 PM EST (1/6) 6:10 AM EST (1/6)
Length of Visible Light 9h 54m
Length of Day
8h 45m
Waxing Gibbous, 93% of the Moon is Illuminated
Jan 6
Waxing Gibbous
Jan 9
Full
Jan 16
Last Quarter
Jan 23
New
Jan 30
First Quarter

Hourly Weather History & Observations

Time (EST) Temp. Windchill Dew Point Humidity Pressure Visibility Wind Dir Wind Speed Gust Speed Precip Events Conditions
12:56 AM 30.9 °F 22.2 °F 26.1 °F 82% 29.43 in - SSW 10.4 mph - N/A   Unknown
1:56 AM 30.9 °F 22.2 °F 26.1 °F 82% 29.42 in - SSW 10.4 mph 17.3 mph N/A   Unknown
2:56 AM 30.9 °F 22.2 °F 26.1 °F 82% 29.43 in - SSW 10.4 mph - N/A   Unknown
3:56 AM 30.9 °F 21.7 °F 26.1 °F 82% 29.43 in - SSW 11.5 mph - N/A   Unknown
4:56 AM 30.9 °F 21.2 °F 26.1 °F 82% 29.43 in - SSW 12.7 mph - N/A   Unknown
5:56 AM 33.1 °F 24.4 °F 27.0 °F 78% 29.43 in - SSW 11.5 mph - N/A   Unknown
6:00 AM - - - N/A% - - North - - N/A   Unknown
6:56 AM 32.0 °F 23.0 °F 27.0 °F 82% 29.45 in - SW 11.5 mph - N/A   Unknown
7:00 AM - - - N/A% - - North - - N/A   Unknown
7:56 AM 33.1 °F 24.4 °F 27.0 °F 78% 29.47 in - SW 11.5 mph - N/A   Unknown
8:56 AM 33.1 °F 24.9 °F 28.0 °F 82% 29.47 in - SW 10.4 mph - N/A   Unknown
9:56 AM 35.1 °F 28.6 °F 28.9 °F 78% 29.49 in - SSW 8.1 mph - N/A   Unknown
10:56 AM 37.0 °F 31.0 °F 30.0 °F 76% 29.52 in - South 8.1 mph - N/A   Unknown
11:56 AM 42.1 °F 37.7 °F 30.9 °F 65% 29.52 in - SW 6.9 mph - N/A   Unknown
12:56 PM 45.0 °F 42.6 °F 30.9 °F 58% 29.50 in - Variable 4.6 mph - N/A   Unknown
1:56 PM 45.0 °F 39.7 °F 30.0 °F 56% 29.49 in - West 10.4 mph 16.1 mph N/A   Unknown
2:56 PM 44.1 °F 39.5 °F 30.9 °F 60% 29.52 in - North 8.1 mph - N/A   Unknown
3:56 PM 44.1 °F 40.8 °F 30.0 °F 58% 29.54 in - NW 5.8 mph - N/A   Unknown
4:56 PM 41.0 °F 37.1 °F 30.9 °F 67% 29.58 in - NNW 5.8 mph - N/A   Unknown
5:56 PM 41.0 °F 38.0 °F 30.0 °F 65% 29.61 in - Variable 4.6 mph - N/A   Unknown
6:56 PM 39.9 °F 36.7 °F 28.9 °F 65% 29.62 in - Variable 4.6 mph - N/A   Unknown
7:56 PM 41.0 °F 35.8 °F 27.0 °F 57% 29.63 in - WNW 8.1 mph - N/A   Unknown
8:56 PM 39.9 °F 37.8 °F 26.1 °F 58% 29.62 in - WSW 3.5 mph - N/A   Unknown
9:56 PM 39.0 °F 36.8 °F 26.1 °F 60% 29.62 in - Variable 3.5 mph - N/A   Unknown
10:56 PM 37.0 °F 34.5 °F 26.1 °F 65% 29.60 in - SW 3.5 mph - N/A   Unknown
11:56 PM 30.9 °F 25.2 °F 25.0 °F 79% 29.60 in - SW 5.8 mph - N/A   Unknown